STARLINK-1244 (45196 NORAD) Tracking and Keplerian Element Data

This shows tracking and keplerian element data for the satellite.

Feedback or suggestion? Click here.




ElementValue
Catalog45196
NameSTARLINK-1244
Epoch Orbit742
Epoch Day94.25001157
Epoch Year2020
RAAN52.1537
Inclination52.9956
Eccentricity0.0001838
Argument of Perigee69.2439
Mean Anonmoly337.9154
Mean Motion15.05586835
Decay Rate0.00015324
L11 45196U 20012U 20094.25001157 .00015324 00000-0 10684-2 0 9992
L22 45196 52.9956 52.1537 0001838 69.2439 337.9154 15.05586835 7420

Live tracking and technical data element details for STARLINK-1244 (NORAD 45196). STARLINK-1244 can be tracked NOW for your location showing map with azimuth and elevation plus other details from your city location.

Track the satellite on the map from your city or location and see movement details for azimuth, elevation, latitude, longitude, range, height, and movement on the map or in text.







IsCatalogInMostPopularTable: catalog: 45196, numindb: 5
Update: records affected: 1



GetName: 45196 STARLINK-1244

Hit Count: updated at: Tue, 07 Apr 2020 16:57:46 GMT